Wind_Speed
6 6 4 4 4 2 3 4 7 9 10 3 6 10 9 11 16 19 21 22 21 25 29 35 19 20 21 23 25 28 30 31 33 33 34 36 37 39 41 41 41 42 43 45
2 3 7 9 1 4 4 13 4 14 15 2 5 6 7 12 18 18 21 24 24 30 34 33 22 19 22 26 30 34 35 34 35 37 36 38 40 41 42 43 45 43 44 44
7 5 11 3 3 10 3 3 11 8 19 7 11 13 10 6 16 18 22 25 26 33 36 35 22 24 25 29 34 37 37 37 37 39 40 42 45 46 46 47 50 45 40 39
8 13 6 4 1 1 22 11 16 14 9 7 14 24 19 2 23 22 29 29 32 32 34 30 21 23 27 32 35 37 38 39 39 40 42 43 45 46 49 47 42 42 41 41
8 1 0 5 5 10 13 13 12 12 5 14 11 19 26 30 15 31 31 28 27 27 35 25 22 23 28 34 37 39 39 40 41 42 43 46 48 51 46 43 43 42 41 40
11 14 11 6 13 13 12 11 12 6 11 21 14 16 32 27 29 31 26 22 24 29 34 25 23 24 28 34 37 40 41 42 44 44 45 48 51 46 43 43 41 42 42 40
6 5 8 10 5 6 9 13 19 24 12 22 15 15 24 22 24 28 24 25 25 29 33 25 22 26 30 34 38 41 42 42 44 44 45 49 48 43 44 43 42 42 40 37
7 7 3 11 6 8 10 9 6 11 12 11 24 16 21 27 24 28 22 26 28 28 31 23 22 25 30 33 37 42 43 42 42 43 47 52 45 45 46 46 46 44 39 35
9 11 22 21 12 8 8 6 14 13 12 12 19 15 32 22 29 32 26 28 30 29 28 22 21 25 29 33 37 42 44 43 42 44 48 50 46 46 49 48 45 41 37 28
16 4 15 17 9 12 9 10 6 8 9 9 19 22 31 30 31 29 28 27 28 29 26 19 21 26 31 35 39 43 46 44 42 45 50 47 46 49 49 44 39 41 33 24
11 11 10 12 3 8 6 8 11 7 8 9 9 22 28 30 32 29 30 28 29 30 24 19 22 27 31 35 40 42 46 43 42 44 49 47 46 49 45 43 43 40 29 23
13 8 6 4 13 14 9 10 9 6 9 8 11 25 25 31 29 29 30 28 29 27 21 18 22 26 30 36 40 43 45 42 41 44 49 46 47 47 41 43 42 36 29 24
14 8 5 7 8 8 7 9 11 12 10 14 13 20 24 22 27 28 29 29 26 20 15 18 22 26 31 35 39 43 44 42 40 43 48 45 46 45 38 40 38 34 29 22
13 14 9 3 9 12 14 13 16 15 8 9 12 18 26 26 27 31 31 30 17 16 13 18 23 27 31 35 39 43 43 42 39 42 46 44 44 43 36 38 38 33 28 22
13 10 8 11 9 7 10 11 14 14 12 10 13 12 20 30 31 32 29 20 11 12 13 19 23 27 31 34 39 43 42 42 39 40 45 43 42 42 33 36 35 34 28 24
13 10 9 11 8 9 10 11 12 12 13 14 15 17 25 26 28 29 21 15 13 12 16 20 23 27 29 33 38 43 41 41 39 38 42 42 40 40 33 34 35 33 30 26
11 11 8 5 16 14 9 9 13 14 12 13 11 18 22 24 29 25 15 15 14 16 18 21 23 26 28 32 37 41 40 40 41 38 40 42 39 39 35 30 31 32 29 25
15 12 9 8 13 10 12 11 12 14 13 13 16 19 20 25 29 21 14 13 14 15 18 20 23 26 28 31 35 39 41 39 41 39 37 40 39 37 36 30 27 29 28 25
16 13 12 13 8 13 19 8 11 13 17 12 15 19 21 25 27 15 12 12 14 16 18 19 22 26 28 30 34 37 41 38 41 40 37 37 40 36 35 34 28 24 27 27
19 16 16 10 12 10 21 11 12 15 19 15 17 20 20 24 26 16 12 12 13 15 17 19 21 25 27 29 33 36 39 39 39 40 38 35 37 39 34 33 32 30 23 23
20 17 15 10 14 13 23 13 13 15 17 16 17 20 21 21 24 19 14 12 13 16 17 18 20 24 26 29 32 34 36 40 39 40 38 37 34 36 37 32 31 32 30 26
18 15 13 15 19 15 21 17 15 16 16 16 18 20 20 21 21 19 17 14 14 17 17 17 19 23 26 29 32 33 35 38 40 38 39 37 35 32 35 35 31 30 30 29
23 21 22 22 21 22 20 21 19 18 17 16 18 18 19 20 20 18 16 15 16 17 18 18 19 23 26 29 32 33 34 37 41 40 38 37 36 33 31 33 34 30 28 28
23 22 23 27 24 24 25 22 23 20 18 18 18 19 19 20 22 20 17 17 17 18 18 18 20 23 26 29 31 33 34 36 40 41 37 37 37 35 32 30 31 33 31 28
23 22 22 25 26 26 24 25 25 24 20 19 21 23 22 22 23 23 22 19 18 18 19 19 21 24 27 29 30 33 34 35 40 41 38 36 35 36 34 31 28 29 32 31
25 24 22 21 27 24 27 25 26 25 23 21 22 23 24 26 25 24 24 24 20 19 20 20 22 25 26 28 30 32 34 34 39 41 38 37 37 36 36 34 31 28 28 30
Wind_Direction
88 264 96 212 217 252 337 303 290 329 337 329 320 321 333 331 337 339 341 338 340 344 343 342 340 341 344 341 342 344 340 336 332 331 323 318 314 312 311 309 307 306 303 302
138 233 245 243 93 32 5 266 156 326 347 320 298 312 318 328 340 336 336 327 331 341 344 343 335 339 339 339 343 343 342 338 331 328 326 322 320 318 317 316 314 310 305 302
275 180 270 105 50 291 157 308 305 279 317 198 324 312 213 329 338 332 327 328 323 325 334 336 334 334 337 341 345 343 340 336 333 331 331 329 326 323 322 320 318 315 313 308
195 252 259 189 303 198 316 302 305 328 320 283 358 305 329 11 342 340 331 328 323 326 330 332 332 331 335 341 345 343 340 339 336 335 334 330 326 326 325 322 321 318 317 312
235 229 180 243 220 289 274 290 319 297 297 286 313 308 318 303 317 348 335 329 327 328 335 334 329 330 337 342 344 345 342 340 339 338 334 331 331 329 328 327 324 322 320 316
216 206 203 222 279 318 318 318 310 297 277 303 332 1 309 323 331 332 336 334 323 326 335 331 328 331 341 345 345 345 344 343 341 338 336 333 334 333 332 330 329 325 322 319
206 221 263 267 291 268 17 306 310 353 344 347 333 319 291 307 311 318 327 341 331 324 330 327 328 336 344 345 347 347 346 344 342 338 336 337 339 337 336 334 330 329 327 321
197 217 281 308 282 284 300 299 310 293 298 304 283 288 316 309 314 322 315 325 327 325 328 325 329 339 343 344 346 350 347 345 342 341 340 341 343 342 342 336 331 332 327 322
217 288 280 283 313 321 252 310 272 302 339 306 322 314 303 282 328 325 322 323 326 321 328 325 331 341 342 342 348 352 349 348 345 345 344 346 347 347 345 341 339 338 335 335
212 292 290 292 348 333 324 302 330 350 316 321 336 287 296 312 318 324 323 326 329 325 330 325 336 344 343 345 352 353 351 351 349 349 347 350 351 350 348 350 358 356 353 355
223 201 270 320 175 283 319 326 302 326 320 301 316 305 300 308 320 322 322 325 323 323 329 330 342 344 345 351 353 353 353 354 352 350 349 354 355 354 357 6 5 7 15 20
224 212 231 242 295 308 299 282 304 324 274 292 326 285 298 310 317 320 321 316 315 326 326 334 341 344 347 353 355 354 355 357 355 352 354 357 357 358 9 10 11 13 18 21
231 258 214 236 325 321 320 320 331 338 331 317 338 277 299 320 323 326 324 319 314 322 328 334 342 344 348 354 355 356 358 0 357 354 356 360 1 3 14 10 12 14 14 22
222 209 188 256 250 266 306 307 312 324 342 297 290 298 315 329 333 336 334 332 330 333 330 337 343 343 352 355 357 359 0 3 0 356 358 2 4 6 15 12 13 16 19 25
216 218 228 254 274 294 284 289 302 316 326 329 297 310 314 326 334 338 339 343 339 331 335 342 343 346 353 354 357 0 2 5 4 359 0 3 6 9 15 15 14 14 19 21
198 223 244 285 296 305 301 303 317 327 334 338 337 315 316 324 328 333 337 340 337 341 341 343 344 350 354 354 356 1 4 7 9 1 2 4 8 11 14 19 20 16 18 20
227 237 269 315 281 311 313 292 318 318 337 339 325 317 320 325 332 332 331 339 342 341 342 345 345 350 351 353 356 1 5 9 12 7 2 5 9 13 14 19 21 21 18 20
246 240 247 260 289 312 282 308 304 311 322 337 333 327 326 332 336 332 328 334 336 338 341 344 345 347 350 353 356 359 5 10 12 13 4 4 8 13 16 16 21 21 19 15
246 251 256 260 276 282 304 281 300 309 315 327 332 333 333 334 335 328 315 321 330 334 340 344 347 347 350 352 354 357 5 7 12 12 11 3 7 12 16 17 16 17 17 15
245 249 260 260 260 251 263 299 301 306 310 332 331 335 333 332 335 338 315 311 323 329 338 342 344 345 349 350 352 355 3 6 9 12 12 9 3 8 14 18 17 18 13 19
248 244 254 253 270 245 277 289 297 300 318 324 327 331 330 334 333 330 317 306 316 328 334 338 340 344 349 349 350 353 360 4 6 9 11 13 9 3 10 15 18 16 15 18
241 249 257 255 246 251 275 283 288 296 309 316 322 328 325 329 332 327 313 300 313 323 328 331 335 341 345 347 349 352 355 0 3 4 8 9 12 8 3 10 15 17 15 13
248 232 216 236 238 270 278 284 287 291 302 309 317 319 325 327 329 323 305 295 309 321 322 323 329 335 341 345 348 350 351 356 360 1 3 6 8 11 9 3 7 13 15 16
258 246 246 256 261 265 274 278 280 286 297 308 313 318 323 324 326 321 304 295 308 314 314 318 324 330 336 341 345 348 349 351 355 356 357 0 3 7 11 10 2 3 9 12
240 261 253 260 264 267 270 272 278 284 294 305 310 315 318 321 322 319 307 294 299 304 307 312 318 326 332 336 340 344 345 348 350 352 353 354 357 1 6 8 7 0 359 5
257 254 260 251 260 267 266 274 275 282 292 297 302 309 312 316 319 317 306 292 289 295 302 308 315 320 327 331 335 339 343 345 346 346 347 349 351 355 357 1 4 3 359 354
Height
5940 5944 5941 5947 5946 5945 5945 5944 5940 5934 5931 5930 5923 5921 5919 5917 5914 5909 5906 5903 5900 5897 5893 5888 5882 5878 5873 5869 5864 5858 5853 5846 5838 5832 5826 5818 5811 5804 5796 5789 5783 5776 5769 5763
5946 5948 5946 5945 5943 5945 5945 5936 5928 5932 5929 5930 5923 5919 5915 5913 5913 5909 5905 5901 5897 5893 5889 5885 5879 5876 5871 5866 5860 5854 5847 5841 5833 5826 5820 5812 5803 5795 5787 5779 5772 5765 5758 5750
5944 5945 5942 5943 5944 5938 5936 5940 5937 5935 5927 5926 5918 5917 5906 5906 5906 5906 5904 5900 5897 5892 5887 5881 5876 5872 5868 5863 5856 5849 5843 5836 5829 5820 5813 5804 5794 5785 5777 5767 5758 5750 5745 5738
5950 5943 5943 5943 5944 5942 5936 5934 5934 5931 5927 5917 5920 5914 5903 5895 5904 5903 5901 5898 5894 5889 5885 5879 5875 5871 5866 5860 5854 5847 5839 5832 5824 5816 5807 5798 5788 5779 5768 5758 5750 5741 5735 5727
5947 5943 5943 5942 5939 5939 5936 5934 5934 5931 5926 5919 5922 5915 5914 5909 5898 5899 5900 5897 5893 5888 5883 5877 5873 5869 5864 5858 5850 5843 5835 5828 5819 5810 5800 5790 5780 5770 5759 5749 5741 5732 5724 5717
5943 5940 5940 5938 5938 5936 5934 5934 5931 5925 5922 5919 5918 5920 5912 5908 5903 5901 5901 5896 5892 5886 5880 5875 5871 5867 5862 5855 5848 5840 5831 5823 5814 5804 5794 5784 5774 5763 5753 5743 5733 5724 5715 5707
5939 5940 5936 5937 5941 5932 5935 5932 5931 5926 5924 5915 5921 5925 5915 5913 5911 5905 5900 5895 5890 5884 5879 5874 5869 5864 5859 5853 5845 5837 5828 5819 5810 5800 5790 5779 5768 5757 5747 5738 5727 5718 5708 5699
5941 5938 5938 5935 5935 5933 5933 5933 5933 5930 5931 5929 5917 5911 5914 5911 5909 5904 5899 5895 5889 5883 5878 5872 5868 5863 5857 5851 5844 5835 5825 5817 5807 5797 5786 5775 5763 5753 5743 5732 5721 5711 5702 5692
5942 5936 5934 5933 5932 5931 5931 5933 5929 5927 5926 5921 5919 5912 5908 5906 5904 5900 5896 5892 5886 5880 5875 5870 5866 5861 5856 5849 5842 5833 5823 5814 5804 5793 5782 5770 5760 5749 5738 5726 5715 5704 5694 5687
5938 5936 5934 5930 5930 5929 5929 5928 5928 5929 5928 5926 5921 5915 5909 5905 5901 5898 5893 5888 5883 5877 5872 5868 5864 5859 5854 5846 5838 5829 5820 5811 5800 5789 5779 5768 5757 5746 5735 5722 5711 5701 5691 5684
5933 5933 5932 5932 5930 5930 5931 5929 5926 5925 5925 5923 5925 5916 5911 5906 5900 5896 5890 5885 5880 5875 5870 5866 5862 5857 5852 5844 5836 5828 5818 5808 5797 5787 5777 5766 5755 5745 5733 5720 5711 5700 5692 5688
5930 5931 5934 5930 5930 5927 5926 5925 5924 5922 5923 5923 5920 5911 5909 5905 5898 5894 5888 5882 5877 5873 5868 5864 5861 5856 5850 5843 5836 5827 5817 5807 5796 5786 5776 5765 5755 5744 5732 5722 5713 5705 5698 5693
5925 5928 5930 5928 5926 5925 5924 5922 5921 5920 5918 5916 5917 5907 5906 5902 5896 5891 5885 5878 5873 5870 5866 5863 5859 5855 5849 5842 5835 5826 5815 5805 5795 5785 5775 5765 5755 5744 5733 5724 5716 5709 5702 5696
5923 5925 5927 5930 5926 5925 5922 5921 5919 5917 5916 5916 5913 5909 5902 5897 5892 5887 5880 5873 5869 5867 5865 5862 5857 5853 5847 5841 5834 5825 5815 5805 5795 5785 5775 5766 5756 5745 5735 5726 5719 5712 5706 5700
5920 5922 5924 5923 5922 5921 5921 5919 5917 5915 5913 5912 5910 5907 5901 5893 5888 5883 5877 5872 5868 5866 5863 5860 5856 5851 5846 5840 5833 5824 5814 5805 5796 5786 5776 5767 5758 5747 5738 5730 5723 5717 5710 5704
5919 5920 5920 5920 5920 5919 5918 5916 5914 5912 5910 5907 5905 5899 5898 5893 5887 5881 5876 5872 5869 5866 5863 5859 5855 5850 5845 5839 5832 5823 5814 5805 5796 5787 5778 5768 5760 5750 5741 5733 5727 5720 5714 5709
5917 5919 5918 5921 5917 5916 5915 5915 5911 5909 5906 5905 5903 5899 5894 5889 5884 5878 5874 5871 5868 5866 5862 5859 5854 5850 5844 5839 5831 5823 5815 5806 5797 5788 5779 5770 5762 5753 5744 5737 5730 5724 5719 5713
5913 5914 5917 5918 5914 5914 5911 5911 5909 5906 5903 5900 5898 5895 5890 5885 5879 5874 5872 5870 5867 5864 5861 5857 5854 5849 5844 5837 5831 5823 5814 5806 5798 5790 5781 5773 5764 5756 5748 5740 5733 5728 5722 5717
5909 5912 5914 5912 5914 5915 5909 5908 5906 5903 5900 5897 5894 5891 5887 5883 5877 5872 5870 5868 5866 5863 5860 5856 5852 5848 5843 5837 5830 5823 5815 5807 5799 5791 5783 5775 5767 5759 5751 5743 5736 5730 5725 5720
5904 5906 5907 5910 5908 5910 5904 5904 5903 5900 5897 5894 5892 5888 5884 5880 5875 5871 5868 5866 5864 5861 5858 5854 5851 5847 5842 5836 5830 5823 5815 5807 5800 5792 5785 5778 5769 5761 5755 5747 5739 5733 5726 5721
5899 5900 5902 5906 5904 5905 5897 5900 5899 5898 5897 5891 5889 5886 5881 5877 5873 5869 5866 5864 5862 5859 5856 5853 5849 5846 5841 5835 5829 5823 5816 5808 5800 5794 5786 5780 5772 5764 5757 5750 5743 5736 5730 5724
5895 5897 5898 5897 5897 5898 5893 5894 5895 5895 5892 5888 5885 5882 5878 5874 5869 5866 5864 5861 5859 5856 5853 5850 5847 5844 5839 5834 5829 5823 5816 5809 5801 5794 5787 5781 5774 5767 5759 5752 5746 5739 5733 5727
5890 5890 5891 5892 5890 5889 5888 5888 5888 5889 5888 5885 5882 5879 5875 5871 5867 5863 5861 5859 5857 5854 5851 5848 5845 5841 5837 5832 5827 5822 5815 5809 5802 5794 5788 5782 5776 5769 5762 5755 5748 5742 5736 5730
5882 5883 5884 5884 5885 5883 5882 5882 5882 5883 5883 5881 5878 5875 5871 5867 5864 5860 5858 5855 5853 5851 5848 5845 5843 5839 5835 5830 5826 5820 5814 5808 5801 5795 5788 5782 5776 5770 5763 5757 5750 5744 5738 5732
5878 5877 5878 5878 5878 5878 5877 5875 5876 5876 5876 5875 5873 5870 5867 5863 5860 5857 5854 5852 5850 5847 5845 5842 5839 5836 5833 5828 5824 5819 5813 5807 5800 5794 5787 5781 5776 5769 5763 5758 5752 5745 5739 5733
5870 5871 5872 5872 5872 5873 5870 5870 5870 5870 5869 5869 5867 5866 5863 5859 5856 5852 5849 5847 5845 5843 5841 5839 5836 5833 5829 5825 5821 5816 5811 5805 5799 5793 5787 5780 5774 5768 5762 5757 5752 5746 5741 5734